Volver al catálogo

STARLINK-4092

ActivoComunicacionesVLEO
NORAD 52838·PAYLOAD·🇺🇸 United States

Lanzado Jun 17, 2022 desde Cape Canaveral Space Force Station

Loading…

Próximos Pases (próximas 24 horas)

TLE

ActualizadoSource: CelesTrak SupGP

Época: Sep 15, 2026, 02:37 UTC

1 52838C 22062J   26258.10951389 -.00034154  00000+0 -10983-2 0  2586
2 52838  53.1586 253.9280 0001376  89.6787 212.1099 15.31719761    13

Sigue STARLINK-4092 en tiempo real con AllMySat

Download on the App Store